Wind_Speed
10 12 10 10 9 9 10 10 10 10 9 8 8 9 8 7 7 7 7 7 7 7 6 5 6 7 8 8 8 7 6 7 6 5 5 5 7 8 10 14 17 17 16 18 19 21 23 26 27 27 27 26 26 26 26 25 24 23 23 22 21 20 19 18 18 18 18 17 16 16 15 15 15 16 17 18 19 19 21 23 24 23 23 24 25
8 12 11 10 10 10 11 11 11 11 10 10 10 10 8 7 7 8 8 8 8 7 7 7 7 8 8 8 8 7 6 6 6 4 3 3 7 9 10 13 17 18 17 18 20 21 23 25 26 27 27 26 26 26 25 25 24 23 23 22 21 20 18 17 17 17 17 16 15 14 14 14 14 15 16 17 17 18 20 22 22 22 23 24 25
10 12 13 11 11 10 12 13 12 12 11 11 11 10 9 8 8 8 8 8 8 7 7 8 8 8 8 8 8 7 6 6 5 5 3 2 5 9 11 13 17 19 18 18 20 21 22 25 26 26 27 26 26 26 25 25 24 23 23 22 21 19 18 17 17 16 16 15 14 13 13 13 13 14 15 15 16 17 19 21 21 21 22 23 24
12 13 13 12 11 11 13 14 14 13 12 12 12 11 9 8 8 8 9 8 8 8 7 7 7 7 7 7 7 7 6 5 5 5 4 2 3 8 12 13 16 19 19 19 20 22 22 24 26 27 27 26 26 26 26 25 24 23 23 22 21 20 19 18 17 16 15 14 13 12 11 12 12 13 13 14 15 16 19 19 20 20 21 22 23
14 14 14 13 12 12 13 15 15 14 13 13 12 11 9 8 8 8 9 8 8 7 7 6 6 6 6 6 6 6 6 5 4 4 4 3 2 6 11 15 16 18 20 19 20 22 23 24 26 27 27 27 26 26 26 25 25 24 23 22 21 21 19 18 16 15 14 13 12 11 10 11 11 11 12 13 14 15 17 18 18 19 20 21 22
14 14 14 13 13 13 14 15 15 14 14 14 13 11 9 7 7 8 8 8 8 7 6 5 5 5 5 6 6 6 5 5 4 4 4 4 3 4 11 16 17 18 19 19 19 21 23 24 26 28 28 27 26 26 25 25 25 24 23 22 22 21 20 18 16 15 14 12 11 10 9 10 10 10 11 12 13 14 15 16 17 18 19 20 21
14 14 14 13 13 13 13 14 15 15 14 14 12 10 8 7 7 7 8 7 7 6 5 5 4 4 5 6 6 6 5 5 4 4 5 5 4 4 9 16 17 17 18 19 19 20 22 24 26 28 28 28 27 26 26 26 25 24 23 23 23 22 20 18 17 15 14 12 11 10 9 9 9 9 10 11 12 12 13 14 15 17 18 19 20
14 14 14 13 13 13 13 14 15 15 14 13 11 9 8 7 7 7 7 7 7 6 5 5 4 5 5 6 5 5 5 4 4 4 4 5 5 5 8 14 17 16 17 18 19 20 22 24 26 27 28 28 27 27 26 26 25 24 24 23 23 22 21 19 17 15 14 13 12 11 10 9 8 9 9 10 10 9 11 12 14 15 17 17 18
14 14 14 13 13 12 13 13 14 14 14 12 10 9 8 7 7 6 6 6 6 5 5 5 5 5 5 5 5 5 4 3 3 3 3 4 5 6 7 12 16 16 16 17 18 20 21 24 26 27 28 28 28 28 27 26 26 25 24 23 23 22 21 20 18 16 15 14 12 10 10 9 8 8 8 8 8 7 9 10 12 14 15 17 17
14 13 14 13 12 12 11 12 13 13 12 11 9 9 8 8 7 6 6 6 5 5 5 5 5 5 5 5 5 4 3 3 2 2 2 3 4 6 8 10 14 16 16 17 18 19 21 23 25 26 28 29 30 29 28 27 26 26 25 23 23 23 22 20 19 17 16 15 13 10 9 9 8 7 7 6 6 6 7 8 10 12 14 15 16
14 13 12 12 12 11 11 11 11 11 11 10 10 9 9 9 7 7 6 5 5 5 5 5 5 5 5 5 4 3 3 3 2 2 2 3 4 6 8 9 11 14 16 16 17 18 21 23 25 27 28 29 30 30 29 28 27 27 25 24 23 23 22 21 20 18 18 17 14 12 10 9 8 7 5 5 5 5 6 6 8 11 13 14 15
14 12 11 11 12 11 10 10 10 10 10 10 10 10 9 8 7 6 6 6 6 6 5 5 5 5 5 5 4 3 3 2 2 2 2 3 4 5 7 8 9 11 14 16 17 18 20 23 25 27 29 29 30 31 30 28 27 27 26 24 24 24 23 23 21 20 19 17 15 13 11 9 8 6 5 3 3 3 4 5 7 9 11 13 14
14 11 11 11 11 11 10 10 10 10 11 11 11 10 10 8 7 6 6 6 6 6 6 6 6 5 5 5 5 4 3 3 3 3 3 3 4 5 6 7 7 9 11 14 16 17 18 21 24 26 28 29 29 30 30 29 28 27 26 25 25 24 24 23 22 21 20 18 16 15 12 10 8 6 5 3 1 2 2 3 5 7 9 11 12
13 11 11 12 11 10 10 10 10 10 11 11 11 10 10 8 7 6 6 5 5 6 6 6 5 5 5 6 6 4 4 4 4 4 4 4 4 5 6 6 6 8 9 11 14 16 17 19 22 25 27 28 29 30 31 30 29 27 26 26 25 24 24 24 23 23 22 19 17 15 13 11 8 7 5 4 2 1 2 3 4 5 7 9 11
13 11 11 11 11 9 9 11 11 11 11 11 11 10 9 8 7 6 5 4 4 5 5 5 5 5 6 6 5 4 4 4 5 5 5 5 4 5 6 6 6 7 8 10 12 14 16 18 20 24 27 29 30 30 31 31 30 28 27 26 25 24 24 25 24 24 23 21 19 16 13 11 8 8 7 5 4 3 3 3 3 4 6 8 10
13 12 11 11 10 9 10 11 12 12 11 11 10 9 8 7 6 5 4 4 4 4 5 5 5 6 6 5 4 4 4 5 5 5 5 4 4 5 5 6 6 7 8 9 11 13 15 17 19 22 26 29 30 30 30 31 30 29 27 26 25 24 24 25 25 25 24 23 21 18 15 12 10 10 9 7 6 5 5 4 4 4 5 7 8
13 13 12 11 10 10 10 11 12 12 11 11 9 8 7 6 6 5 5 5 4 5 6 6 6 6 5 4 4 4 4 4 5 5 4 4 4 5 5 5 6 7 8 8 9 12 14 16 18 20 24 28 30 30 30 30 30 29 28 26 26 25 24 24 26 26 25 25 23 20 17 14 12 12 11 10 8 7 7 6 5 5 5 6 8
12 12 12 12 11 10 10 11 11 12 12 12 10 8 6 5 5 5 5 5 5 6 7 7 7 6 5 5 4 4 4 4 5 5 4 3 4 5 5 5 6 7 8 8 8 11 13 14 16 18 22 26 29 31 31 30 30 29 28 27 27 26 25 25 25 26 26 26 24 21 19 16 15 15 14 13 11 10 9 8 7 6 6 6 7
12 12 12 12 11 10 10 10 9 11 12 11 9 8 7 6 5 6 6 6 6 6 7 7 7 6 5 5 5 4 4 5 5 4 3 4 4 4 4 4 5 7 7 8 8 9 12 13 14 17 20 24 27 30 31 30 30 29 28 27 27 27 26 25 25 26 27 26 25 23 21 18 17 17 16 15 13 12 11 10 9 8 7 6 7
12 12 11 10 10 10 10 10 9 9 10 9 8 9 8 6 6 7 7 6 6 7 7 6 6 6 6 6 6 5 5 5 4 4 4 3 3 3 2 2 3 5 6 6 6 8 10 12 12 13 17 21 25 28 30 30 30 29 28 27 27 27 26 25 25 26 27 25 25 24 22 20 19 19 19 17 15 14 12 11 10 9 8 6 6
11 11 10 8 9 10 11 10 9 8 8 7 8 9 8 7 6 6 7 7 7 8 7 5 6 7 7 6 6 6 6 5 4 5 4 1 1 2 2 2 1 3 6 6 6 7 9 10 10 11 13 18 22 26 28 29 30 29 29 28 27 27 26 25 25 27 27 25 25 24 23 22 21 21 21 19 17 15 14 12 11 10 9 7 7
11 11 9 9 9 10 11 10 9 8 7 7 8 8 8 8 7 7 8 8 8 9 6 6 8 8 9 7 6 7 6 5 4 4 3 2 1 1 1 2 2 1 4 6 6 6 8 10 10 11 11 13 18 23 26 28 29 30 30 28 27 27 26 26 26 27 28 26 25 24 24 23 22 22 21 20 18 16 15 14 12 11 10 9 8
10 9 9 10 10 10 9 8 8 7 6 6 8 8 8 9 8 8 9 9 10 9 7 8 8 8 10 7 6 7 6 5 4 4 4 3 3 3 1 1 3 2 1 4 5 5 7 9 11 12 11 11 15 20 23 26 29 29 29 28 28 27 26 26 25 27 29 27 25 24 24 23 22 22 21 20 19 17 16 15 14 12 12 11 9
11 10 10 10 10 9 9 9 7 5 5 5 6 7 8 9 8 9 10 10 11 9 7 9 7 7 9 8 8 8 7 8 6 4 5 4 5 5 3 2 3 2 2 2 4 4 4 7 10 12 12 11 13 16 20 24 27 29 28 27 27 26 26 26 26 28 29 27 26 25 25 24 23 23 22 22 20 19 18 17 16 14 13 12 11
11 10 9 10 11 11 10 8 5 5 5 5 6 7 7 7 8 10 11 11 11 8 7 9 7 6 8 9 11 10 9 8 6 5 6 6 6 6 5 5 5 3 3 3 1 3 3 5 9 11 12 12 12 15 19 22 26 28 28 27 26 26 26 26 26 29 28 26 26 25 26 25 25 24 23 23 22 21 19 18 18 16 15 14 13
9 8 7 8 11 10 9 7 4 4 5 5 6 6 7 7 8 9 9 11 11 8 7 10 10 7 7 10 11 9 7 7 7 5 6 7 7 6 5 6 7 6 4 2 1 3 4 4 7 10 11 11 11 13 17 20 24 27 28 27 27 26 26 26 27 28 27 26 26 26 26 26 25 25 24 24 23 22 21 20 19 18 17 15 14
9 8 6 5 5 4 4 4 4 4 5 5 5 5 7 7 7 8 9 10 10 8 9 11 10 7 7 10 12 10 7 8 7 5 6 7 6 4 4 4 5 6 6 4 2 3 4 4 5 8 10 10 10 11 13 16 20 24 27 27 26 25 26 27 28 29 28 26 27 26 26 27 27 26 26 25 25 23 22 21 20 19 18 17 15
10 9 8 7 7 5 4 4 2 3 5 5 5 5 7 6 8 9 10 10 10 8 8 9 9 7 8 11 12 11 8 8 8 6 8 9 6 4 4 4 4 6 7 6 5 4 4 3 4 7 9 9 10 11 12 14 17 20 23 24 25 25 26 27 27 27 27 25 26 27 26 27 27 27 27 26 26 25 23 22 21 20 19 18 17
10 9 9 10 9 8 6 5 4 4 6 6 6 7 6 5 7 8 8 8 8 9 9 8 8 9 10 9 10 10 8 8 9 8 10 11 8 5 6 6 5 6 7 7 8 7 6 4 4 6 8 9 10 10 10 11 14 18 20 22 24 24 24 25 24 24 24 24 24 25 25 25 25 27 27 26 26 26 24 22 21 20 20 19 18
9 9 10 9 8 7 7 6 6 5 6 7 8 9 8 7 8 8 8 8 8 9 10 9 9 10 10 8 9 10 10 10 10 9 11 13 11 7 8 8 6 7 9 10 10 9 7 5 5 6 7 9 9 9 9 9 10 14 18 21 22 23 23 23 23 23 23 23 23 23 23 23 23 25 26 26 26 26 25 23 22 21 20 20 19
10 10 9 7 6 7 8 6 6 6 7 8 9 9 9 9 8 8 10 10 9 9 10 10 10 10 10 10 10 11 12 12 11 11 11 13 14 12 11 10 8 9 11 12 10 9 8 7 7 8 8 8 7 7 8 9 10 11 14 18 21 22 23 22 22 22 22 22 21 21 23 22 22 23 24 26 26 26 26 24 23 22 21 20 20
11 10 8 6 6 7 7 5 6 7 10 10 10 10 9 10 9 9 11 10 9 8 9 10 11 10 10 11 10 9 9 10 9 10 11 13 14 14 13 10 9 11 11 11 10 11 11 9 9 10 9 9 8 7 6 6 9 11 12 15 17 19 21 22 22 22 21 22 22 21 22 23 22 22 23 25 26 26 26 25 24 23 22 21 20
10 9 7 6 6 6 6 5 7 8 10 11 11 11 9 10 10 11 11 10 10 8 8 9 9 8 9 11 10 9 9 9 8 9 10 11 13 14 12 10 9 10 11 11 12 13 13 12 11 10 9 10 10 9 8 7 9 11 12 13 15 16 19 21 22 23 22 22 22 22 22 23 22 22 22 23 25 26 26 25 25 23 23 22 21
10 8 7 5 4 4 6 7 9 10 10 11 11 10 9 10 11 11 10 10 11 11 11 9 7 8 10 11 11 10 10 10 11 11 10 11 12 12 10 10 10 11 13 13 13 14 15 14 13 11 10 10 11 12 12 13 14 14 13 13 14 16 17 19 20 22 22 22 22 23 22 22 21 22 22 22 24 25 26 26 25 24 23 23 22
10 8 7 5 4 4 6 8 10 10 10 9 9 8 8 9 11 11 10 11 12 10 11 10 9 10 11 11 11 12 11 11 12 12 12 13 12 9 9 9 10 13 14 14 13 13 14 14 14 13 12 12 12 13 14 15 17 17 15 15 15 16 17 18 19 21 22 22 22 23 23 22 21 21 22 22 22 24 25 26 26 24 24 23 23
10 8 7 5 4 4 6 7 9 9 9 8 7 6 6 6 9 10 11 12 12 11 11 11 11 11 11 10 11 13 12 12 13 14 15 16 13 10 10 9 10 13 13 13 12 11 12 13 14 13 12 12 12 12 12 13 15 16 15 16 16 17 17 18 19 20 22 23 23 24 23 23 24 23 23 22 22 22 23 24 25 26 25 24 24
9 8 6 5 4 4 5 6 8 8 8 7 5 5 4 4 6 9 11 12 13 13 14 14 13 12 11 11 13 13 13 12 13 15 16 17 13 12 12 11 12 13 13 12 12 12 12 13 14 13 12 13 12 11 11 11 12 12 14 16 17 18 18 18 19 20 21 23 24 25 24 24 25 25 25 25 24 23 22 21 22 25 26 26 25
10 9 7 5 4 4 5 6 7 8 7 7 6 6 6 6 6 7 8 11 13 14 17 18 15 13 12 12 13 13 14 13 12 14 15 15 14 14 14 13 14 14 13 13 13 13 13 15 15 14 13 13 14 13 12 12 12 12 12 14 16 18 18 19 20 20 22 23 25 26 27 26 24 23 25 26 26 26 24 22 21 22 24 26 27
11 11 8 6 5 4 4 6 6 7 8 8 9 9 9 8 8 9 9 10 12 13 17 19 17 16 14 13 12 12 13 13 12 12 12 12 14 15 14 14 14 13 14 14 14 13 13 15 16 15 14 14 15 15 15 15 16 15 14 14 16 17 18 19 20 21 23 25 26 28 29 29 27 26 26 26 26 28 27 26 25 24 23 24 26
13 14 11 8 6 5 4 5 5 6 7 8 10 11 11 11 11 13 12 11 11 11 15 16 15 16 16 16 15 13 14 14 14 14 14 13 13 15 15 14 13 11 12 13 13 11 12 14 15 14 13 13 15 16 16 16 17 18 16 15 16 17 18 20 21 23 25 27 28 28 29 30 30 30 29 26 25 26 28 29 29 28 26 24 25
15 15 12 9 8 6 5 4 4 4 6 7 10 12 13 14 15 15 15 12 11 13 13 13 12 14 16 17 16 15 16 15 15 15 15 15 14 15 15 14 12 11 11 12 11 10 10 11 13 14 13 13 14 15 15 14 15 16 14 13 15 16 17 18 19 22 25 29 30 29 28 28 29 29 28 25 24 24 27 29 30 30 29 27 26
18 16 12 11 10 9 7 5 5 4 5 7 10 12 14 15 18 19 19 15 12 12 10 9 10 11 14 15 15 15 15 15 15 15 15 15 15 15 16 14 12 10 10 10 10 11 11 10 11 13 13 13 13 13 13 12 12 12 11 11 13 14 16 17 19 20 23 28 31 29 27 26 27 28 28 27 27 27 27 28 29 29 29 29 28
18 16 14 14 12 11 9 6 5 4 4 6 8 10 12 14 17 19 20 17 14 12 8 7 8 9 11 12 13 14 13 13 13 12 12 12 13 14 14 14 12 10 9 8 8 10 11 11 11 13 13 13 13 12 12 12 11 11 11 12 13 13 13 14 16 18 20 26 30 29 26 26 27 26 25 26 26 27 28 29 29 29 28 29 29
20 17 17 16 14 12 9 7 5 4 4 6 7 9 11 13 15 18 19 17 13 11 9 8 8 8 9 10 10 11 10 10 9 8 8 8 9 10 11 11 12 11 11 10 9 9 10 11 11 11 12 13 13 12 12 14 14 12 12 12 12 12 11 10 10 10 11 16 25 29 27 24 25 25 25 26 26 25 25 27 29 30 29 29 27
22 20 21 20 17 13 10 8 7 5 5 6 8 10 11 13 15 17 18 17 13 11 9 8 8 8 7 8 8 8 7 7 7 6 6 6 6 6 7 8 9 11 12 12 11 11 11 11 10 9 10 11 11 11 11 13 13 12 11 11 12 12 10 10 9 8 7 7 13 22 27 26 23 23 23 26 28 26 25 25 27 28 28 27 25
25 23 25 24 19 16 14 11 8 7 6 7 9 11 12 14 16 17 17 16 13 10 8 7 6 5 5 5 5 5 5 5 5 4 4 4 4 4 6 6 7 8 10 10 9 10 11 11 10 10 10 9 9 10 10 10 10 11 11 11 11 12 11 12 12 11 9 6 6 11 19 25 23 21 22 24 26 26 26 26 27 27 27 25 25
28 28 29 26 20 18 17 15 11 9 9 9 10 12 13 15 17 17 16 15 13 10 7 5 4 3 3 4 4 4 4 4 4 4 3 2 2 3 4 5 6 6 7 7 7 8 9 8 8 10 11 10 10 11 10 10 10 11 11 11 11 12 13 13 13 11 9 7 7 7 11 16 19 21 23 25 24 25 26 27 27 28 27 25 26
29 33 35 30 22 20 19 16 14 12 11 10 11 13 13 15 18 18 15 13 12 10 8 6 4 4 4 5 5 5 6 6 6 5 4 3 2 2 2 3 4 4 5 5 5 5 6 5 4 5 7 8 9 9 10 11 11 11 11 11 11 12 12 12 12 11 10 10 9 10 11 12 13 15 20 25 25 24 26 27 28 28 28 27 26
29 33 37 34 25 22 21 19 17 14 13 11 11 13 14 16 19 18 14 12 11 10 9 7 6 6 6 6 6 6 7 7 7 6 5 5 3 2 2 2 2 2 3 3 4 4 3 3 3 3 4 4 5 6 8 10 11 11 12 12 12 12 12 12 12 11 11 11 11 12 13 12 11 11 14 19 24 26 26 27 28 29 29 28 27
26 28 32 34 29 25 23 22 20 17 15 13 12 13 15 16 17 17 14 11 11 11 9 8 7 7 6 5 5 5 5 5 5 5 5 5 4 4 3 2 2 1 1 1 2 1 1 1 1 1 2 2 3 5 6 8 9 10 11 11 11 11 11 11 10 9 9 10 12 13 13 12 13 13 12 13 17 24 28 28 27 28 28 27 25
25 27 30 31 32 29 27 25 22 20 18 16 14 14 15 16 16 16 14 11 10 10 8 6 5 4 3 2 2 2 3 3 2 2 2 2 2 3 2 2 2 2 2 2 2 2 2 2 1 1 1 2 2 3 4 6 7 8 9 10 10 11 11 10 10 10 10 10 12 13 14 14 14 14 14 12 11 14 22 27 27 27 28 26 24
Wind_Direction
213 204 206 204 201 200 201 201 205 204 202 194 186 177 172 167 160 153 139 132 119 105 99 97 99 97 94 89 82 82 78 74 68 68 80 103 130 148 157 163 167 167 161 157 159 161 164 166 167 167 166 165 164 163 162 160 157 155 155 155 151 147 144 139 133 127 122 117 112 107 101 94 87 80 73 67 63 61 59 58 56 52 50 49 48
207 203 201 201 202 199 203 203 206 205 202 194 187 183 181 178 170 159 149 139 124 105 93 93 96 98 98 95 90 86 80 75 70 64 62 108 140 153 160 167 170 172 169 163 163 164 166 169 170 170 169 168 167 166 166 164 161 160 159 159 156 153 149 145 141 135 129 124 119 113 106 98 88 79 73 66 62 60 58 56 55 52 49 48 47
212 207 202 203 201 199 205 204 207 205 202 195 189 187 188 184 175 164 151 139 126 110 98 95 97 100 100 98 95 88 80 71 66 64 57 93 146 159 165 170 174 176 175 170 167 167 169 172 173 172 172 171 170 169 169 168 166 164 163 162 160 158 155 154 149 142 136 130 125 118 110 101 91 81 73 67 62 59 57 55 53 51 49 47 46
216 211 205 202 199 201 204 206 207 204 202 197 192 191 193 186 174 164 149 138 128 116 107 102 102 104 101 99 97 93 83 72 65 65 61 71 139 163 170 173 176 179 180 177 172 171 172 174 176 175 175 174 173 173 173 172 170 168 166 164 164 163 162 161 155 149 143 136 131 122 112 102 93 83 74 68 62 59 57 54 52 51 49 47 46
219 215 210 204 201 202 204 207 206 204 202 198 196 195 195 185 171 161 149 138 128 120 113 108 108 108 105 103 103 100 91 78 63 59 59 56 110 160 172 174 176 180 183 183 179 175 175 176 178 179 178 177 176 176 176 175 174 172 169 167 169 170 168 166 162 156 151 145 138 130 118 105 95 86 76 68 62 58 56 54 51 50 49 47 46
220 217 213 208 204 203 205 206 205 204 202 200 199 198 195 180 167 159 150 140 131 125 121 118 116 113 112 112 110 106 98 85 70 57 57 53 72 146 171 174 174 178 183 186 185 181 179 179 180 182 181 180 179 179 179 179 178 176 172 171 174 175 173 170 167 163 159 155 146 138 126 110 99 89 78 70 63 58 55 53 50 48 48 47 45
217 215 213 209 206 205 205 206 206 204 202 202 200 199 191 174 164 160 154 146 139 137 135 132 127 124 122 121 119 114 108 98 89 74 66 64 72 116 165 173 172 174 180 186 189 187 184 183 183 184 184 183 182 182 183 182 181 180 176 176 178 178 177 175 172 170 167 165 157 148 134 116 105 94 82 72 65 60 55 53 51 48 48 46 45
210 209 209 209 209 206 204 207 206 204 203 202 201 196 183 169 161 163 162 155 150 147 143 138 135 137 134 130 127 119 116 109 101 93 82 76 82 101 148 168 170 171 177 184 191 192 189 187 186 186 187 186 185 185 185 185 184 183 182 180 181 180 181 178 175 174 173 173 167 157 140 122 111 99 88 78 69 61 56 52 49 48 47 46 44
204 205 208 210 209 205 204 207 206 205 204 201 200 192 177 169 164 169 170 163 158 151 145 143 143 142 143 139 131 126 126 122 115 108 101 91 94 108 132 158 168 171 174 182 191 195 194 191 188 188 188 189 189 188 188 187 186 186 186 185 184 184 185 182 178 177 179 180 174 166 144 127 121 111 98 86 75 65 58 50 47 46 46 45 44
199 205 209 210 209 205 204 207 207 205 202 200 197 188 177 172 170 174 174 168 156 149 151 153 154 151 152 150 144 147 146 138 132 131 137 125 112 120 132 149 164 172 175 181 189 195 197 194 191 190 190 191 192 191 190 189 189 189 188 189 189 187 188 185 182 181 184 186 181 174 152 138 138 125 111 95 80 71 61 49 45 44 44 44 43
200 206 206 206 207 205 205 207 206 203 200 201 195 186 179 176 177 177 176 166 152 153 159 162 163 160 164 165 166 171 161 150 149 171 180 153 134 130 139 148 162 173 179 183 188 194 199 198 194 193 192 192 194 193 191 190 191 192 190 191 192 191 191 189 187 187 191 191 183 179 163 152 154 140 122 101 80 68 60 49 42 42 44 43 42
201 202 202 203 207 208 209 206 203 199 196 199 195 184 180 181 182 180 174 161 154 158 163 171 171 173 180 179 184 191 177 172 177 197 205 173 160 148 144 151 165 176 183 187 190 194 198 201 199 197 195 194 196 196 194 192 192 193 193 194 195 195 195 194 193 193 198 196 187 185 174 165 166 154 137 113 83 63 52 43 36 38 42 42 40
201 201 203 202 208 216 214 206 200 198 196 197 194 185 183 184 183 182 173 160 159 162 167 175 176 186 189 188 196 200 203 213 209 205 216 208 187 175 161 158 171 182 189 193 196 197 198 201 204 203 199 196 197 198 197 195 193 193 194 196 197 198 199 199 200 200 204 202 194 190 182 175 176 171 162 161 137 61 40 30 27 30 38 40 40
199 200 200 198 208 215 211 204 199 199 198 198 195 191 188 186 186 181 173 166 166 166 170 178 184 194 191 197 205 209 221 232 230 220 228 229 207 192 186 177 178 189 197 202 205 205 203 202 205 207 203 199 199 199 199 198 195 194 196 199 199 200 203 204 206 208 209 210 205 196 188 182 186 193 189 200 226 297 347 359 4 16 28 36 37
194 197 196 200 209 210 206 202 196 196 198 199 198 197 194 193 193 184 177 175 177 172 174 182 186 188 191 203 212 216 226 239 240 235 237 235 227 215 206 202 202 206 208 211 213 211 211 208 207 208 207 204 202 201 200 201 199 196 198 200 200 201 205 208 211 214 213 214 214 207 199 194 204 214 210 221 245 276 303 323 334 355 14 26 32
188 191 193 199 209 209 205 199 195 197 197 201 203 203 203 203 195 183 177 178 184 181 179 185 184 186 194 207 224 229 233 245 241 238 244 241 242 241 228 221 224 225 218 217 217 215 215 214 211 208 208 207 205 203 202 202 202 200 200 201 201 203 207 209 214 217 218 219 218 215 211 206 220 232 230 235 251 274 290 302 310 329 354 13 23
188 184 186 192 201 203 202 199 197 199 200 201 205 207 211 212 201 185 182 188 191 188 186 187 187 191 194 206 233 242 246 250 243 242 248 249 249 253 253 244 241 237 227 221 219 216 215 216 214 210 208 208 207 206 204 203 203 203 203 203 204 205 208 211 216 219 222 225 220 217 219 218 228 240 244 248 256 272 285 294 297 307 331 358 11
190 179 181 189 193 195 196 202 206 205 206 204 201 205 213 221 216 208 207 208 206 201 197 196 201 205 205 212 224 235 247 250 252 255 258 268 269 275 281 272 252 238 230 228 226 221 216 216 214 211 207 206 208 207 206 205 203 204 205 206 207 208 209 213 218 220 224 227 224 221 222 225 233 242 249 254 260 270 280 288 292 295 311 340 357
191 191 189 191 189 189 192 199 207 207 208 205 202 208 219 227 231 235 234 228 221 220 213 209 217 218 213 214 213 223 242 243 254 261 262 271 284 301 300 289 262 236 230 230 238 234 220 218 216 213 208 205 207 208 208 206 205 204 206 209 210 211 212 215 219 222 225 226 227 228 226 228 236 244 250 254 262 269 275 281 286 288 296 320 342
195 200 191 189 186 188 192 195 200 201 204 203 206 217 222 225 236 245 243 238 233 236 231 225 232 228 220 216 211 222 239 238 245 243 233 259 297 332 335 321 274 229 225 227 242 245 224 218 219 217 211 205 205 208 209 208 207 206 207 209 211 214 214 217 222 225 226 226 229 232 233 234 237 244 249 254 260 266 270 274 280 283 285 300 324
195 193 188 187 182 188 191 191 196 201 201 201 209 218 225 226 235 250 255 253 246 243 241 238 242 239 231 225 221 229 237 233 239 236 221 259 344 35 28 17 344 218 222 225 238 245 226 215 216 218 216 210 207 207 208 209 209 208 209 211 213 216 216 218 224 229 229 227 230 232 235 238 240 244 248 253 258 262 265 267 272 275 277 285 305
198 194 193 190 187 198 199 187 189 195 193 203 216 218 225 231 239 251 256 259 251 246 247 249 253 255 248 236 233 242 243 231 237 251 246 277 317 36 42 30 11 246 223 231 237 246 231 216 213 214 216 215 211 209 208 208 209 208 209 211 214 217 217 219 224 230 230 227 230 233 234 237 239 243 247 251 254 257 259 261 263 266 270 277 290
204 198 196 191 187 199 205 191 187 191 188 198 219 223 223 228 238 250 253 256 252 253 259 259 264 270 266 255 242 249 258 250 246 262 258 263 291 300 286 355 352 9 249 243 233 242 239 224 219 214 213 214 214 214 211 208 208 207 206 209 213 217 219 221 225 231 231 229 230 232 235 236 238 241 245 248 250 253 254 255 257 259 264 270 280
209 206 206 197 188 197 199 193 186 186 194 207 225 228 225 226 237 254 255 252 253 257 262 260 260 267 270 262 239 228 234 250 255 261 262 258 273 286 291 311 325 355 2 299 227 231 245 235 224 215 213 213 212 216 214 210 208 207 206 207 212 217 221 223 225 231 233 232 232 233 235 237 238 239 242 245 248 249 251 252 253 256 259 265 273
209 205 206 194 190 196 191 191 190 192 202 214 226 225 221 222 236 255 256 253 254 252 252 257 255 254 263 262 247 222 207 229 241 246 260 263 265 276 289 301 303 304 331 359 260 241 263 256 229 216 216 216 211 213 215 212 210 210 208 208 212 216 222 225 228 233 235 235 235 235 236 237 238 239 240 243 245 247 249 250 251 254 257 262 267
204 195 206 201 190 182 175 181 191 222 231 218 218 219 225 228 236 252 256 250 247 238 238 254 256 249 250 256 255 241 222 230 234 238 251 261 267 277 290 295 294 285 286 321 277 259 279 273 236 221 222 223 220 217 217 215 210 212 212 210 212 215 220 225 230 235 237 237 238 237 237 237 238 239 240 241 243 245 247 248 249 252 254 259 262
199 198 221 244 229 189 181 197 187 222 251 242 238 237 241 247 246 255 266 257 248 232 221 238 252 251 246 248 246 239 236 239 239 243 251 260 269 276 280 283 287 277 273 274 253 257 266 255 233 227 228 230 232 226 222 220 213 213 215 214 214 215 220 225 229 234 237 239 240 240 240 238 237 238 240 241 242 243 244 245 247 249 252 255 258
199 208 213 226 251 277 282 274 261 233 244 248 258 257 245 250 245 245 263 270 269 260 236 240 258 255 242 246 247 242 238 242 247 250 254 262 261 252 264 269 271 260 257 260 259 263 257 236 215 224 232 235 239 236 228 225 221 216 217 218 218 218 222 226 229 234 237 239 241 241 242 241 239 237 237 240 242 242 242 243 245 247 249 252 254
201 211 207 212 236 258 262 273 301 294 284 286 285 280 268 266 259 252 260 262 267 267 256 255 262 251 233 230 246 257 257 251 256 256 252 257 251 233 250 260 267 257 245 239 241 248 248 230 212 222 236 243 246 248 244 234 227 219 217 219 219 219 222 227 231 235 239 241 242 243 243 244 242 239 236 237 240 241 240 241 243 245 247 249 251
203 204 201 214 231 243 244 261 294 296 291 291 286 293 301 296 288 284 276 264 260 256 252 254 256 256 247 228 226 238 246 245 250 251 248 256 258 249 244 245 253 256 247 238 235 239 240 230 225 226 233 245 248 250 250 241 230 220 218 220 219 219 220 224 229 232 239 243 244 245 244 244 244 242 238 237 238 240 239 238 239 242 245 248 250
209 210 203 214 223 237 245 263 296 296 284 284 285 295 300 292 285 277 270 266 260 244 240 246 244 249 254 248 232 221 223 228 239 246 249 258 262 261 251 240 234 237 241 241 240 244 244 235 231 229 225 233 240 245 245 241 236 225 222 224 224 223 221 222 226 231 239 245 244 244 245 246 247 246 243 239 238 239 238 236 236 237 240 244 248
210 208 200 203 208 237 258 277 294 290 287 292 294 295 291 288 286 277 272 271 265 240 219 221 230 243 250 254 251 240 234 234 243 252 255 258 257 257 254 246 238 235 238 240 242 246 241 233 230 227 221 223 230 235 236 242 247 237 229 230 229 227 225 223 225 229 236 243 244 242 245 247 248 249 247 242 239 239 238 236 235 235 236 239 242
197 189 183 192 208 246 281 295 291 290 293 294 295 296 291 286 281 274 273 275 275 263 236 217 222 242 251 255 256 253 257 262 264 262 263 263 256 255 255 254 247 241 244 241 242 244 239 232 227 222 222 229 236 237 230 229 243 243 235 235 235 230 227 225 227 230 234 239 242 242 244 248 249 248 247 245 242 240 239 237 236 235 236 237 238
188 190 188 206 239 273 295 301 299 300 300 298 298 298 291 283 274 268 265 264 267 273 273 262 243 241 245 250 252 251 253 260 265 266 269 267 263 264 262 258 250 243 244 242 243 244 239 235 229 226 235 245 248 249 243 234 236 243 239 235 237 235 231 229 228 230 233 237 241 243 245 248 251 251 250 248 245 243 242 240 238 237 237 238 238
198 208 208 226 256 280 299 305 307 308 306 305 306 301 289 279 271 266 259 251 252 256 265 270 261 251 248 243 245 248 245 246 255 263 265 262 264 271 265 256 249 244 242 241 247 248 241 238 236 235 244 254 255 252 250 244 239 240 240 236 235 235 235 235 232 230 231 234 239 244 247 247 248 250 251 250 248 245 244 244 241 239 239 239 240
205 213 213 223 247 276 297 308 311 313 310 309 310 309 299 279 266 260 251 247 247 243 242 249 250 248 248 244 242 245 243 240 246 254 259 261 262 268 267 257 244 243 244 242 243 247 244 241 240 240 245 251 254 249 246 246 242 238 237 236 234 234 235 236 237 235 234 234 236 240 245 248 247 247 247 249 249 249 248 247 245 242 241 241 242
207 211 211 220 244 273 293 311 313 314 315 317 320 322 321 304 281 265 254 249 245 240 238 237 238 241 241 241 242 243 245 244 245 249 254 261 264 263 263 259 252 250 253 251 247 248 250 247 243 241 243 244 243 242 241 242 242 240 237 236 237 237 236 236 238 239 240 239 238 237 239 244 247 247 246 247 249 252 252 251 249 246 244 242 243
209 215 211 224 247 278 299 316 317 319 326 331 335 338 342 344 328 300 275 258 248 243 242 238 234 239 242 243 244 245 247 248 250 247 247 258 263 258 255 256 259 259 260 259 253 248 249 249 245 240 239 236 231 232 240 248 247 246 246 245 246 246 244 242 241 240 241 242 241 239 238 239 242 247 249 249 251 253 254 254 253 250 248 246 246
217 228 224 225 248 277 303 320 322 325 335 340 344 350 349 347 346 338 318 284 264 252 249 245 237 237 244 249 251 252 251 249 250 248 246 253 257 256 256 256 257 259 262 261 255 253 252 246 242 238 235 232 230 232 238 248 251 249 251 253 253 255 256 256 252 248 245 243 241 240 240 239 239 240 242 245 250 254 254 255 256 257 254 251 250
221 237 233 222 241 260 284 313 321 328 335 341 344 346 344 343 350 351 338 311 285 264 256 253 243 240 245 249 251 256 257 257 258 257 251 251 254 255 255 257 259 257 257 255 254 262 257 241 235 236 235 234 237 239 239 244 250 249 249 253 256 259 262 263 262 257 252 248 242 239 239 241 242 240 239 241 246 252 254 255 256 259 259 257 256
229 237 230 213 224 242 259 286 300 316 326 332 337 338 342 347 351 352 346 325 292 273 271 268 253 243 244 247 250 254 258 263 264 261 255 250 251 252 252 257 262 263 261 255 249 250 251 241 233 232 234 239 242 244 248 250 249 248 253 263 264 262 261 262 264 262 257 250 243 238 236 239 243 244 244 244 243 247 254 257 256 257 259 259 258
233 231 223 211 213 233 246 261 279 291 313 322 331 336 342 349 350 350 348 337 307 288 283 275 263 252 249 250 252 255 258 263 263 259 256 251 248 247 249 255 259 263 268 263 248 238 245 250 239 234 238 243 244 246 250 249 244 248 261 274 274 269 263 260 262 265 261 249 240 235 234 235 238 241 244 246 245 246 250 253 254 255 256 258 259
225 222 221 217 215 232 243 243 259 273 300 315 323 329 335 343 347 347 345 337 318 305 298 279 270 264 259 255 257 261 260 262 263 261 259 253 248 245 245 250 253 256 260 263 257 240 239 244 242 241 240 241 244 247 247 248 251 259 269 275 276 276 270 261 259 262 260 248 238 232 230 232 235 237 241 242 243 245 246 247 249 251 253 256 259
222 219 218 222 228 236 239 235 240 260 288 304 306 312 324 333 339 342 341 335 318 304 299 292 285 274 267 263 263 267 266 267 268 266 262 254 249 246 245 247 248 251 253 253 254 249 246 247 242 238 235 236 242 244 244 251 257 261 266 272 276 280 274 256 250 258 259 248 242 237 229 227 232 235 237 237 237 239 242 246 247 249 252 254 257
231 222 215 222 236 243 242 239 237 250 277 294 294 299 312 320 328 337 338 333 319 300 293 294 292 282 274 271 268 268 267 269 269 265 259 253 247 241 241 241 241 244 249 250 251 251 249 245 238 236 238 239 240 239 240 249 255 254 259 267 274 279 272 254 254 270 276 262 254 245 232 224 228 232 232 235 236 234 236 240 243 245 248 251 255
234 226 218 218 231 245 250 253 247 244 262 284 286 289 302 312 320 330 333 329 319 300 288 289 293 285 274 267 265 265 266 269 272 268 257 250 244 234 231 230 229 233 242 249 249 246 243 240 237 233 234 232 229 232 235 245 253 251 256 263 266 269 264 258 261 268 270 266 270 256 236 231 237 238 235 236 238 236 236 238 241 245 246 249 252
237 230 221 217 228 245 253 256 253 246 253 270 280 284 294 304 312 320 327 325 319 307 289 286 295 296 284 274 276 281 285 289 290 285 273 251 236 230 224 217 217 219 227 234 233 239 245 249 243 231 230 229 226 226 225 234 243 242 250 257 258 261 259 258 259 257 259 256 254 258 247 246 254 253 244 239 238 238 240 240 243 247 247 247 248
246 237 222 214 224 244 252 256 253 248 254 265 276 281 288 297 303 311 320 321 319 315 302 290 288 288 284 283 287 290 291 294 293 289 283 269 244 228 214 205 209 208 214 221 221 229 237 239 234 228 234 235 227 222 219 226 234 233 241 248 252 256 253 253 255 253 256 255 248 252 256 257 265 265 252 243 239 240 245 246 245 247 247 245 247
255 247 227 212 220 244 250 254 254 249 254 263 272 277 282 292 297 303 313 317 317 314 308 296 285 281 280 280 286 291 293 292 288 282 276 271 261 246 232 212 207 202 203 211 213 218 221 217 210 207 222 232 232 234 234 236 236 232 234 241 246 248 247 248 251 249 248 245 243 250 256 255 256 263 260 252 247 245 248 251 249 248 247 247 249
264 261 242 220 218 240 249 250 254 251 252 259 265 270 275 283 291 298 305 313 316 313 311 303 292 288 288 289 295 300 304 300 291 282 272 268 262 255 252 248 243 249 246 239 232 229 233 223 199 197 217 233 240 246 251 251 247 241 238 240 245 247 247 249 246 245 244 240 242 248 252 252 249 249 255 264 261 251 249 252 252 249 246 246 248
271 270 263 239 222 231 244 247 250 249 250 256 257 259 267 273 281 291 298 306 313 311 312 314 308 307 311 328 336 332 330 320 313 307 290 276 269 262 261 266 270 282 293 305 312 317 321 325 331 327 309 292 274 261 259 256 255 255 251 249 252 252 252 251 249 252 254 250 250 252 253 254 254 253 254 263 275 262 251 250 250 248 245 244 244
Height
3136 3136 3137 3138 3138 3139 3139 3140 3140 3140 3141 3142 3142 3142 3143 3143 3143 3143 3143 3143 3143 3144 3144 3145 3145 3146 3146 3146 3146 3147 3147 3147 3147 3147 3148 3148 3149 3149 3150 3150 3151 3152 3154 3155 3156 3157 3158 3159 3160 3161 3162 3164 3165 3166 3167 3168 3169 3170 3171 3172 3173 3174 3175 3175 3175 3176 3176 3176 3177 3177 3177 3178 3178 3178 3177 3177 3177 3177 3176 3175 3175 3174 3173 3172 3171
3135 3136 3136 3137 3138 3138 3139 3139 3140 3140 3141 3141 3142 3142 3142 3142 3143 3143 3143 3143 3143 3144 3144 3145 3145 3146 3146 3146 3147 3147 3147 3147 3147 3147 3147 3148 3149 3149 3150 3150 3151 3152 3153 3154 3156 3157 3158 3159 3160 3161 3163 3164 3165 3166 3167 3168 3169 3170 3171 3173 3174 3175 3176 3176 3176 3176 3176 3177 3177 3177 3178 3178 3178 3178 3178 3178 3178 3177 3177 3176 3176 3176 3175 3174 3173
3135 3135 3135 3136 3137 3138 3138 3139 3139 3140 3141 3141 3142 3142 3142 3142 3143 3143 3143 3143 3143 3144 3144 3145 3145 3146 3146 3146 3147 3147 3147 3147 3146 3147 3147 3147 3148 3149 3149 3150 3151 3152 3152 3154 3155 3156 3158 3159 3160 3161 3162 3164 3165 3166 3168 3169 3170 3171 3172 3173 3174 3175 3176 3176 3176 3176 3177 3177 3178 3178 3178 3179 3179 3179 3179 3179 3178 3178 3178 3177 3177 3177 3176 3175 3174
3134 3134 3135 3136 3136 3137 3138 3138 3139 3140 3140 3141 3141 3142 3142 3142 3142 3143 3143 3143 3143 3144 3145 3145 3146 3146 3146 3146 3147 3147 3147 3146 3146 3146 3147 3147 3147 3148 3149 3150 3151 3151 3152 3153 3155 3156 3157 3158 3160 3161 3162 3163 3165 3166 3168 3169 3170 3171 3172 3174 3175 3175 3176 3176 3177 3177 3177 3178 3178 3179 3179 3179 3179 3180 3180 3179 3179 3179 3178 3178 3178 3177 3177 3176 3175
3133 3134 3134 3135 3136 3136 3137 3138 3139 3139 3140 3141 3141 3141 3142 3142 3142 3143 3143 3143 3144 3144 3145 3145 3146 3146 3146 3146 3146 3147 3147 3147 3146 3146 3146 3146 3146 3147 3148 3149 3150 3151 3152 3153 3154 3155 3156 3158 3159 3160 3162 3163 3164 3166 3167 3169 3170 3171 3173 3174 3175 3175 3176 3177 3177 3177 3178 3178 3179 3179 3180 3180 3180 3180 3180 3180 3180 3180 3179 3179 3179 3178 3178 3177 3176
3133 3133 3134 3135 3135 3136 3137 3137 3138 3139 3140 3140 3141 3141 3142 3142 3142 3143 3143 3143 3144 3144 3145 3145 3146 3146 3146 3146 3146 3146 3147 3147 3147 3146 3146 3146 3146 3146 3147 3148 3149 3150 3152 3153 3154 3155 3156 3157 3159 3160 3161 3163 3164 3166 3167 3169 3170 3171 3173 3174 3174 3175 3176 3177 3177 3178 3178 3179 3179 3179 3180 3180 3180 3181 3181 3181 3181 3180 3180 3180 3180 3179 3179 3178 3178
3132 3133 3133 3134 3135 3135 3136 3137 3138 3138 3139 3140 3140 3141 3141 3142 3142 3142 3143 3143 3144 3144 3145 3145 3146 3146 3146 3146 3146 3146 3147 3147 3147 3146 3146 3146 3146 3146 3146 3147 3148 3150 3151 3152 3153 3155 3156 3157 3158 3160 3161 3162 3164 3166 3167 3168 3170 3171 3173 3173 3174 3175 3177 3177 3178 3178 3179 3179 3179 3180 3181 3181 3181 3181 3182 3182 3182 3181 3181 3181 3180 3180 3180 3179 3179
3131 3132 3133 3133 3134 3135 3136 3136 3137 3138 3139 3140 3140 3140 3141 3141 3142 3142 3143 3143 3143 3144 3144 3145 3146 3146 3146 3146 3146 3146 3147 3147 3147 3147 3147 3147 3146 3146 3146 3147 3148 3149 3151 3152 3153 3154 3155 3157 3158 3159 3161 3162 3164 3165 3167 3168 3170 3171 3172 3173 3174 3175 3177 3177 3178 3178 3179 3179 3179 3180 3180 3181 3182 3182 3182 3183 3182 3182 3182 3182 3181 3181 3181 3180 3180
3130 3131 3132 3132 3133 3134 3135 3136 3137 3137 3138 3139 3140 3140 3140 3141 3141 3142 3142 3143 3143 3144 3144 3145 3145 3146 3146 3146 3146 3146 3147 3147 3147 3147 3147 3147 3147 3146 3147 3147 3148 3149 3150 3151 3152 3153 3155 3156 3158 3159 3160 3162 3163 3164 3166 3168 3169 3171 3172 3173 3174 3175 3176 3177 3178 3178 3178 3178 3179 3180 3180 3181 3182 3182 3182 3183 3183 3182 3182 3182 3182 3182 3181 3181 3181
3129 3130 3131 3131 3132 3134 3135 3136 3136 3137 3138 3139 3139 3139 3139 3140 3141 3141 3142 3143 3143 3144 3144 3145 3145 3145 3146 3146 3146 3146 3147 3147 3147 3147 3147 3148 3147 3147 3147 3147 3148 3149 3150 3150 3151 3152 3154 3155 3157 3158 3159 3160 3161 3163 3165 3167 3169 3170 3171 3173 3174 3175 3176 3178 3178 3178 3178 3178 3179 3180 3181 3181 3182 3182 3182 3183 3183 3183 3183 3183 3183 3182 3182 3182 3182
3129 3129 3130 3131 3132 3133 3134 3135 3136 3137 3137 3138 3138 3138 3139 3139 3140 3141 3142 3142 3143 3143 3144 3144 3145 3145 3145 3146 3146 3146 3147 3147 3147 3147 3148 3148 3147 3147 3147 3148 3148 3149 3149 3150 3150 3151 3153 3154 3156 3157 3158 3159 3160 3162 3164 3166 3168 3169 3171 3172 3174 3175 3176 3177 3178 3178 3178 3178 3179 3180 3181 3182 3182 3182 3183 3183 3183 3183 3183 3183 3183 3183 3183 3183 3182
3128 3129 3130 3131 3132 3133 3134 3135 3136 3136 3137 3137 3138 3138 3138 3139 3139 3140 3141 3142 3142 3143 3143 3144 3145 3145 3145 3146 3146 3146 3147 3147 3147 3147 3148 3148 3148 3147 3147 3148 3148 3149 3149 3149 3150 3151 3152 3153 3155 3155 3157 3159 3160 3162 3164 3166 3167 3169 3171 3172 3173 3175 3176 3177 3177 3177 3177 3178 3179 3180 3181 3181 3182 3183 3183 3183 3183 3184 3184 3184 3184 3184 3184 3183 3183
3128 3129 3130 3131 3132 3133 3134 3135 3136 3136 3136 3137 3137 3138 3138 3138 3139 3140 3141 3141 3142 3142 3143 3144 3144 3145 3146 3146 3146 3146 3146 3147 3147 3147 3147 3147 3147 3147 3147 3148 3148 3149 3149 3149 3149 3150 3151 3153 3154 3155 3157 3158 3160 3161 3163 3165 3167 3169 3170 3171 3172 3174 3175 3176 3177 3177 3177 3178 3178 3180 3181 3181 3182 3183 3183 3183 3184 3184 3184 3184 3184 3184 3185 3184 3184
3129 3129 3130 3131 3132 3132 3133 3134 3135 3136 3136 3136 3136 3137 3138 3138 3139 3140 3140 3141 3141 3142 3143 3143 3144 3145 3146 3146 3146 3146 3146 3147 3147 3147 3147 3147 3147 3147 3147 3148 3148 3149 3149 3149 3149 3150 3151 3152 3153 3154 3156 3157 3159 3160 3162 3164 3166 3168 3169 3170 3172 3174 3175 3176 3177 3177 3177 3178 3178 3180 3181 3182 3182 3183 3183 3183 3184 3184 3184 3185 3185 3185 3185 3185 3185
3129 3129 3130 3130 3131 3132 3133 3134 3135 3135 3135 3135 3136 3136 3137 3138 3139 3139 3140 3141 3141 3142 3143 3143 3144 3145 3145 3146 3146 3146 3146 3146 3147 3147 3147 3147 3147 3147 3147 3148 3148 3148 3148 3148 3149 3149 3150 3151 3152 3153 3155 3156 3158 3159 3161 3163 3165 3167 3168 3170 3172 3173 3174 3175 3176 3176 3177 3178 3178 3180 3181 3182 3182 3183 3183 3183 3184 3185 3185 3185 3185 3186 3186 3186 3186
3127 3128 3129 3130 3131 3132 3133 3133 3134 3135 3135 3135 3136 3136 3137 3138 3138 3139 3140 3141 3141 3142 3143 3143 3144 3144 3145 3145 3146 3146 3146 3146 3147 3147 3147 3147 3147 3147 3147 3147 3148 3148 3148 3148 3148 3149 3149 3150 3151 3152 3153 3155 3157 3159 3160 3162 3165 3167 3168 3169 3171 3172 3173 3174 3175 3176 3177 3177 3177 3179 3181 3182 3182 3183 3183 3183 3184 3185 3185 3186 3186 3186 3186 3186 3186
3126 3127 3129 3130 3131 3132 3132 3133 3134 3134 3134 3135 3135 3136 3137 3138 3139 3139 3140 3140 3141 3142 3142 3143 3144 3144 3145 3145 3145 3146 3146 3146 3147 3147 3147 3146 3146 3146 3147 3147 3147 3147 3147 3147 3147 3148 3149 3149 3150 3151 3152 3154 3156 3158 3160 3162 3164 3166 3168 3169 3170 3171 3172 3173 3174 3175 3176 3176 3177 3179 3181 3182 3182 3182 3183 3183 3184 3185 3186 3186 3186 3187 3187 3187 3187
3125 3127 3128 3128 3130 3131 3132 3133 3133 3134 3134 3134 3135 3136 3137 3138 3139 3139 3140 3140 3141 3141 3142 3142 3143 3144 3145 3145 3145 3146 3146 3146 3146 3147 3146 3146 3146 3146 3146 3146 3147 3147 3147 3147 3147 3148 3148 3148 3149 3150 3151 3152 3154 3157 3159 3161 3163 3165 3167 3168 3169 3170 3171 3172 3173 3175 3175 3175 3177 3179 3180 3181 3182 3182 3183 3183 3184 3185 3186 3186 3187 3187 3187 3187 3187
3125 3126 3126 3127 3129 3130 3132 3132 3132 3133 3133 3134 3135 3136 3137 3138 3139 3139 3139 3140 3140 3141 3141 3142 3143 3144 3144 3144 3145 3145 3145 3146 3146 3146 3146 3146 3146 3146 3146 3146 3146 3146 3146 3146 3147 3147 3148 3148 3148 3149 3150 3151 3153 3155 3157 3160 3161 3163 3165 3167 3169 3169 3171 3171 3172 3173 3173 3175 3177 3178 3180 3181 3181 3182 3182 3183 3184 3185 3185 3186 3187 3187 3187 3187 3187
3125 3125 3126 3127 3129 3130 3130 3131 3131 3132 3133 3134 3135 3135 3136 3137 3138 3138 3139 3139 3140 3140 3141 3142 3143 3143 3144 3144 3144 3144 3145 3145 3145 3146 3146 3146 3146 3146 3146 3145 3145 3145 3146 3146 3146 3147 3147 3147 3148 3149 3149 3150 3152 3154 3156 3159 3161 3162 3164 3166 3168 3169 3170 3171 3171 3172 3172 3175 3177 3178 3179 3180 3181 3181 3182 3183 3184 3184 3185 3186 3186 3187 3187 3187 3187
3124 3124 3125 3127 3128 3128 3128 3129 3130 3132 3133 3134 3135 3135 3136 3136 3137 3137 3138 3139 3139 3139 3140 3142 3142 3143 3143 3143 3144 3144 3144 3144 3145 3145 3145 3146 3146 3146 3145 3145 3145 3145 3145 3145 3146 3146 3146 3147 3147 3148 3149 3150 3151 3153 3155 3157 3160 3161 3163 3164 3166 3167 3169 3170 3170 3170 3171 3175 3176 3177 3178 3179 3180 3181 3182 3183 3183 3184 3185 3185 3186 3186 3187 3187 3187
3123 3124 3126 3127 3127 3127 3127 3129 3130 3132 3133 3134 3134 3135 3136 3136 3137 3137 3137 3138 3139 3139 3140 3141 3141 3142 3142 3143 3143 3143 3143 3144 3144 3145 3145 3145 3145 3145 3145 3145 3145 3144 3145 3145 3145 3146 3146 3146 3147 3147 3148 3150 3151 3152 3154 3156 3158 3160 3161 3163 3164 3166 3168 3169 3169 3169 3170 3174 3175 3176 3177 3178 3179 3180 3181 3182 3183 3183 3184 3185 3185 3186 3186 3187 3187
3122 3124 3126 3127 3128 3127 3128 3129 3131 3132 3133 3134 3134 3135 3135 3136 3136 3136 3136 3137 3138 3138 3139 3140 3140 3141 3141 3142 3143 3143 3143 3143 3143 3144 3144 3144 3144 3145 3145 3145 3145 3145 3145 3145 3145 3145 3145 3146 3146 3147 3147 3148 3150 3152 3153 3155 3156 3157 3158 3160 3162 3165 3167 3168 3168 3167 3169 3173 3174 3175 3176 3177 3179 3179 3180 3181 3182 3183 3183 3184 3184 3185 3185 3186 3186
3122 3124 3125 3127 3129 3129 3129 3130 3131 3132 3133 3134 3134 3135 3135 3136 3136 3135 3136 3136 3137 3138 3139 3140 3140 3140 3140 3141 3141 3142 3143 3142 3142 3143 3144 3144 3144 3145 3145 3146 3146 3145 3145 3145 3145 3145 3145 3145 3145 3146 3147 3147 3149 3151 3153 3154 3155 3156 3157 3159 3161 3164 3166 3167 3167 3166 3168 3171 3173 3174 3175 3176 3178 3179 3180 3180 3181 3182 3182 3183 3184 3184 3185 3185 3186
3122 3123 3124 3127 3128 3128 3130 3131 3131 3132 3133 3134 3135 3135 3136 3136 3136 3135 3135 3136 3137 3138 3139 3139 3140 3140 3139 3138 3138 3140 3142 3142 3143 3143 3143 3144 3144 3144 3145 3146 3146 3146 3145 3145 3145 3145 3145 3145 3145 3145 3146 3147 3148 3150 3151 3153 3154 3155 3156 3158 3160 3162 3164 3166 3165 3165 3168 3171 3172 3173 3174 3175 3176 3177 3178 3179 3180 3181 3181 3182 3183 3184 3184 3185 3185
3121 3122 3122 3123 3125 3127 3129 3130 3131 3131 3132 3133 3135 3136 3136 3136 3136 3135 3134 3134 3136 3139 3139 3138 3138 3139 3139 3137 3136 3137 3140 3142 3142 3142 3143 3143 3144 3144 3145 3145 3145 3146 3145 3145 3145 3145 3145 3145 3145 3145 3146 3147 3148 3149 3150 3152 3153 3155 3156 3157 3159 3161 3162 3164 3164 3164 3167 3169 3170 3172 3172 3174 3175 3176 3177 3178 3179 3179 3180 3181 3182 3183 3183 3184 3184
3122 3122 3121 3120 3120 3123 3125 3127 3129 3130 3131 3131 3133 3135 3134 3135 3135 3133 3132 3131 3133 3137 3139 3138 3138 3139 3139 3138 3136 3137 3138 3140 3141 3141 3141 3142 3143 3144 3144 3144 3144 3145 3145 3145 3145 3144 3145 3145 3145 3145 3146 3147 3148 3149 3150 3151 3153 3154 3155 3156 3157 3159 3160 3161 3162 3163 3165 3167 3169 3170 3171 3173 3174 3175 3176 3177 3178 3178 3179 3180 3181 3182 3182 3183 3184
3123 3124 3123 3122 3120 3122 3123 3124 3126 3128 3130 3131 3132 3134 3134 3135 3136 3135 3133 3131 3131 3134 3136 3136 3136 3137 3138 3137 3135 3136 3137 3138 3139 3141 3140 3140 3143 3145 3144 3144 3144 3144 3144 3144 3145 3144 3145 3145 3145 3146 3147 3147 3148 3149 3150 3151 3152 3153 3154 3156 3156 3157 3159 3160 3161 3162 3164 3166 3167 3168 3170 3171 3172 3173 3174 3175 3176 3177 3178 3179 3180 3181 3181 3182 3183
3123 3125 3125 3125 3124 3124 3124 3124 3124 3125 3126 3127 3129 3131 3132 3133 3134 3134 3132 3132 3132 3132 3132 3133 3134 3135 3136 3137 3136 3136 3136 3136 3138 3140 3140 3140 3143 3145 3144 3143 3144 3143 3143 3144 3144 3144 3145 3145 3145 3146 3147 3148 3149 3149 3150 3151 3151 3152 3153 3154 3155 3156 3157 3158 3160 3161 3162 3164 3165 3166 3168 3169 3171 3172 3173 3174 3175 3176 3177 3178 3179 3180 3180 3181 3182
3123 3124 3125 3125 3125 3125 3125 3125 3125 3125 3125 3125 3125 3126 3127 3128 3129 3130 3129 3130 3132 3132 3132 3133 3133 3132 3133 3136 3138 3138 3136 3136 3137 3140 3140 3140 3141 3143 3143 3144 3144 3144 3143 3144 3144 3144 3144 3145 3145 3146 3147 3148 3149 3149 3150 3150 3150 3151 3152 3153 3154 3154 3156 3157 3159 3160 3161 3162 3164 3165 3166 3168 3169 3170 3171 3172 3173 3174 3175 3176 3177 3178 3179 3180 3181
3122 3124 3124 3125 3125 3125 3125 3126 3126 3127 3126 3126 3125 3125 3125 3126 3127 3128 3128 3130 3131 3133 3133 3132 3132 3132 3132 3135 3136 3138 3138 3138 3138 3139 3140 3139 3138 3140 3142 3143 3145 3145 3144 3144 3145 3144 3144 3145 3145 3146 3147 3148 3148 3149 3149 3150 3150 3150 3151 3152 3153 3153 3154 3156 3157 3159 3159 3160 3162 3163 3164 3166 3167 3168 3169 3170 3171 3172 3173 3175 3175 3177 3178 3179 3180
3122 3123 3124 3125 3124 3124 3124 3125 3126 3126 3126 3126 3126 3126 3126 3125 3125 3126 3126 3128 3129 3132 3134 3133 3132 3131 3131 3132 3132 3134 3136 3138 3138 3138 3139 3138 3137 3138 3140 3142 3144 3145 3145 3145 3145 3145 3145 3145 3145 3146 3147 3148 3148 3148 3149 3149 3150 3150 3151 3151 3152 3152 3153 3155 3156 3157 3158 3159 3160 3162 3163 3164 3165 3166 3167 3168 3169 3171 3172 3173 3174 3175 3176 3177 3178
3122 3123 3123 3123 3123 3122 3123 3124 3125 3125 3125 3125 3125 3126 3126 3125 3125 3124 3124 3125 3125 3126 3128 3129 3130 3130 3129 3128 3128 3129 3132 3134 3135 3135 3136 3137 3136 3137 3140 3142 3143 3143 3144 3145 3144 3144 3144 3145 3145 3146 3147 3147 3148 3148 3148 3149 3149 3150 3150 3150 3151 3151 3152 3153 3155 3156 3157 3157 3158 3160 3161 3162 3164 3164 3165 3166 3167 3169 3170 3171 3172 3173 3175 3175 3176
3122 3122 3122 3122 3122 3122 3122 3123 3124 3124 3124 3124 3124 3124 3124 3124 3124 3124 3125 3125 3124 3123 3123 3123 3125 3127 3127 3126 3127 3129 3131 3132 3133 3133 3135 3135 3135 3137 3140 3141 3141 3141 3141 3142 3142 3142 3142 3143 3144 3145 3146 3147 3148 3148 3147 3147 3148 3150 3150 3150 3150 3151 3151 3152 3153 3155 3156 3157 3157 3158 3159 3161 3162 3163 3164 3164 3165 3167 3168 3169 3171 3172 3173 3174 3175
3121 3121 3121 3121 3122 3122 3122 3123 3123 3123 3123 3123 3122 3123 3123 3123 3123 3123 3124 3125 3124 3124 3123 3121 3122 3124 3126 3127 3128 3129 3131 3131 3131 3132 3133 3133 3134 3136 3138 3139 3139 3138 3139 3140 3140 3140 3140 3141 3143 3144 3146 3146 3147 3147 3146 3147 3147 3149 3150 3150 3150 3150 3151 3151 3152 3153 3154 3155 3156 3156 3157 3159 3160 3161 3161 3162 3164 3165 3166 3167 3169 3170 3171 3172 3173
3121 3120 3120 3121 3121 3122 3122 3122 3122 3122 3122 3122 3122 3121 3122 3122 3122 3122 3123 3123 3123 3123 3123 3122 3122 3123 3124 3125 3127 3128 3129 3130 3130 3131 3131 3131 3133 3135 3136 3137 3138 3137 3138 3138 3139 3139 3139 3140 3141 3142 3144 3145 3145 3146 3145 3146 3146 3147 3148 3149 3149 3150 3150 3150 3151 3152 3152 3153 3154 3154 3155 3156 3158 3159 3160 3161 3162 3163 3164 3165 3167 3168 3169 3171 3172
3120 3119 3119 3119 3120 3121 3121 3121 3121 3121 3121 3121 3121 3121 3121 3121 3121 3121 3121 3122 3122 3122 3121 3120 3121 3122 3123 3123 3125 3126 3127 3128 3129 3130 3130 3130 3132 3133 3133 3134 3135 3136 3136 3137 3137 3138 3138 3139 3139 3140 3142 3143 3144 3145 3144 3145 3146 3146 3147 3148 3148 3148 3149 3149 3149 3150 3151 3152 3152 3153 3153 3154 3155 3156 3157 3158 3160 3161 3162 3163 3165 3166 3167 3169 3170
3118 3117 3117 3118 3119 3120 3120 3120 3120 3119 3119 3119 3120 3120 3120 3121 3120 3120 3120 3120 3120 3120 3120 3119 3120 3121 3121 3122 3123 3125 3125 3126 3128 3128 3129 3129 3130 3131 3131 3132 3132 3133 3133 3134 3135 3136 3137 3137 3137 3138 3139 3140 3142 3143 3143 3144 3144 3145 3146 3147 3147 3147 3147 3148 3148 3148 3149 3150 3151 3151 3151 3152 3153 3154 3155 3156 3157 3159 3160 3161 3162 3164 3165 3166 3168
3117 3116 3116 3117 3118 3119 3119 3119 3118 3118 3118 3118 3119 3119 3119 3120 3120 3119 3119 3119 3119 3119 3118 3118 3120 3120 3120 3121 3122 3123 3123 3124 3125 3126 3128 3128 3128 3128 3129 3130 3131 3131 3131 3131 3132 3134 3135 3135 3136 3136 3137 3138 3140 3141 3142 3142 3143 3144 3144 3145 3145 3146 3146 3147 3147 3147 3147 3147 3148 3149 3149 3149 3150 3151 3152 3154 3155 3156 3157 3159 3160 3162 3163 3164 3165
3116 3115 3115 3116 3117 3118 3118 3118 3118 3117 3117 3117 3118 3118 3119 3119 3119 3119 3118 3117 3117 3117 3116 3117 3119 3120 3120 3120 3120 3121 3122 3122 3123 3124 3126 3126 3126 3126 3127 3128 3129 3129 3129 3130 3131 3133 3133 3133 3134 3134 3135 3136 3138 3139 3140 3141 3141 3142 3143 3143 3144 3145 3145 3145 3145 3145 3145 3146 3146 3146 3147 3148 3148 3148 3149 3151 3153 3153 3154 3156 3158 3159 3161 3162 3163
3115 3115 3116 3117 3117 3117 3117 3117 3117 3117 3117 3117 3116 3117 3117 3117 3117 3117 3117 3116 3116 3115 3116 3117 3118 3118 3118 3119 3119 3120 3120 3121 3121 3122 3123 3124 3125 3125 3125 3126 3127 3127 3128 3129 3131 3132 3131 3131 3132 3133 3134 3135 3136 3138 3139 3139 3140 3141 3142 3142 3143 3143 3143 3143 3143 3143 3143 3144 3144 3144 3145 3145 3146 3147 3148 3149 3150 3151 3152 3153 3155 3157 3158 3159 3160
3114 3115 3115 3116 3117 3117 3117 3117 3117 3116 3116 3116 3116 3115 3116 3116 3116 3116 3115 3115 3114 3115 3116 3116 3116 3117 3117 3118 3118 3119 3119 3119 3120 3120 3120 3121 3123 3123 3123 3124 3125 3125 3126 3126 3129 3130 3130 3130 3130 3132 3133 3134 3135 3136 3137 3138 3138 3139 3140 3140 3141 3141 3141 3141 3140 3140 3140 3140 3141 3142 3143 3143 3144 3144 3146 3147 3147 3148 3150 3150 3151 3153 3155 3156 3157
3112 3113 3114 3115 3116 3117 3116 3116 3116 3116 3116 3116 3115 3115 3116 3116 3116 3116 3115 3114 3113 3114 3115 3115 3115 3116 3116 3117 3117 3117 3118 3118 3118 3119 3119 3119 3120 3121 3121 3122 3123 3123 3124 3124 3125 3127 3128 3128 3129 3130 3131 3132 3133 3134 3135 3136 3137 3137 3137 3138 3138 3138 3138 3138 3138 3137 3137 3137 3138 3139 3140 3140 3141 3142 3143 3144 3145 3146 3147 3149 3149 3150 3152 3152 3153
3110 3112 3112 3113 3115 3116 3116 3115 3115 3115 3115 3115 3115 3115 3115 3116 3117 3116 3116 3115 3114 3113 3114 3114 3115 3115 3116 3116 3116 3116 3117 3117 3117 3117 3117 3118 3118 3119 3119 3120 3121 3121 3122 3123 3123 3124 3126 3126 3127 3128 3129 3131 3131 3132 3134 3134 3135 3135 3135 3136 3136 3136 3136 3136 3136 3135 3135 3135 3136 3136 3137 3138 3139 3140 3141 3142 3143 3144 3145 3147 3148 3149 3150 3151 3151
3109 3110 3109 3110 3112 3114 3115 3114 3114 3114 3114 3114 3114 3115 3115 3115 3116 3116 3116 3115 3114 3113 3114 3114 3114 3115 3115 3115 3115 3116 3116 3116 3116 3116 3116 3117 3117 3118 3118 3119 3119 3120 3120 3121 3121 3122 3123 3124 3125 3126 3127 3128 3129 3130 3132 3132 3133 3133 3133 3134 3134 3134 3134 3134 3134 3134 3134 3134 3134 3134 3135 3136 3136 3138 3139 3139 3140 3142 3143 3145 3146 3147 3148 3149 3151
3106 3108 3107 3106 3108 3111 3112 3112 3112 3112 3113 3113 3114 3114 3114 3115 3115 3116 3115 3115 3114 3114 3113 3114 3114 3114 3115 3115 3115 3115 3115 3115 3116 3116 3116 3116 3116 3117 3117 3118 3118 3119 3119 3120 3120 3121 3121 3122 3123 3124 3125 3126 3127 3128 3129 3130 3131 3131 3132 3131 3132 3132 3132 3132 3132 3132 3132 3132 3132 3133 3133 3134 3135 3136 3137 3137 3138 3140 3141 3142 3143 3145 3146 3147 3149
3104 3107 3105 3102 3105 3108 3108 3109 3110 3111 3112 3112 3113 3113 3113 3114 3114 3115 3115 3114 3114 3113 3113 3113 3114 3114 3114 3115 3115 3115 3115 3115 3115 3115 3115 3115 3115 3116 3116 3117 3117 3118 3118 3118 3119 3119 3120 3121 3122 3123 3123 3124 3125 3126 3127 3128 3129 3129 3129 3130 3130 3130 3130 3130 3131 3131 3131 3131 3132 3132 3132 3133 3134 3134 3135 3135 3136 3138 3139 3140 3142 3143 3145 3146 3146
3102 3105 3104 3100 3101 3105 3106 3107 3108 3109 3110 3111 3112 3112 3112 3113 3113 3114 3114 3114 3113 3113 3113 3113 3113 3114 3114 3114 3114 3114 3114 3114 3114 3114 3115 3115 3115 3115 3116 3116 3117 3117 3117 3118 3118 3119 3119 3120 3121 3122 3123 3123 3124 3125 3125 3126 3127 3127 3127 3128 3128 3129 3129 3129 3129 3129 3129 3130 3130 3131 3131 3131 3132 3132 3132 3133 3134 3136 3137 3138 3140 3142 3143 3144 3144
3101 3102 3101 3097 3099 3104 3104 3104 3106 3107 3109 3110 3111 3111 3111 3112 3112 3112 3113 3113 3113 3113 3113 3113 3113 3113 3114 3114 3114 3114 3114 3114 3114 3114 3114 3114 3115 3115 3116 3116 3116 3117 3117 3118 3118 3119 3119 3120 3121 3121 3122 3123 3124 3124 3124 3125 3125 3126 3126 3126 3127 3127 3127 3127 3128 3128 3128 3128 3129 3129 3129 3130 3130 3131 3131 3132 3132 3134 3135 3136 3138 3139 3140 3141 3142
3097 3098 3098 3095 3097 3101 3101 3102 3103 3105 3107 3108 3109 3110 3110 3111 3111 3111 3112 3112 3113 3112 3112 3112 3112 3113 3113 3113 3114 3113 3114 3114 3114 3114 3114 3114 3115 3115 3116 3116 3116 3117 3117 3118 3118 3119 3120 3120 3121 3122 3122 3123 3123 3123 3123 3124 3124 3124 3125 3126 3126 3126 3126 3126 3126 3127 3127 3127 3127 3128 3128 3128 3129 3130 3130 3131 3131 3132 3133 3134 3135 3136 3138 3139 3140
3094 3095 3096 3094 3096 3099 3099 3099 3101 3102 3104 3106 3108 3109 3109 3110 3110 3111 3111 3112 3112 3112 3112 3112 3112 3113 3113 3113 3113 3113 3114 3114 3114 3114 3114 3114 3115 3115 3116 3116 3117 3117 3118 3118 3119 3119 3120 3120 3121 3121 3122 3122 3123 3123 3123 3123 3123 3124 3124 3125 3125 3125 3125 3126 3126 3126 3127 3127 3127 3127 3127 3127 3128 3129 3129 3130 3130 3130 3131 3132 3133 3134 3135 3137 3138